{"data":{"norad_id":28414,"epoch":"2026-09-19T23:01:32.413152Z","epoch_age_seconds":61376,"freshness":"FRESH","line1":"1 28414U 04035B   26262.95940293  .00001234  00000+0  86845-4 0  9994","line2":"2 28414  97.6053 279.6461 0004941 154.9374 205.2094 15.06879868201099","mean_motion":15.06879868,"eccentricity":0.0004941,"inclination_deg":97.6053,"raan_deg":279.6461,"arg_perigee_deg":154.9374,"mean_anomaly_deg":205.2094,"bstar":8.6845e-5,"rev_number":20109,"period_min":95.561698751158,"perigee_km":542.320133712,"apogee_km":549.16231017092,"semimajor_km":6923.8782219415,"source":"CELESTRAK","updated_at":"2026-09-20T09:00:13.599896Z"}}